Regional Weather Roundup
Issued by NWS Newport/Morehead, NC

Current Version | Previous Version | Graphics & Text | Print | Product List | Glossary Off
Versions: 1 2 3 4 5 6 7 8 9 10 11 12 13 14 15 16 17 18 19 20 21 22 23 24 25 26 27 28 29 30 31 32 33 34 35 36 37 38 39 40 41 42 43 44 45 46 47 48 49 50

000
ASUS42 KMHX 302110
RWRMHX
WEATHER ROUNDUP FOR EASTERN NORTH CAROLINA
NATIONAL WEATHER SERVICE NEWPORT/MOREHEAD CITY NC
500 PM EDT SAT AUG 30 2014

NOTE: "FAIR" INDICATES FEW OR NO CLOUDS BELOW 12,000 FEET
WITH NO SIGNIFICANT WEATHER AND/OR OBSTRUCTIONS TO VISIBILITY

NCZ015>017-031-032-045>047-102-103-302200-
NORTH COAST

CITY           SKY/WX    TMP DP  RH WIND       PRES   REMARKS
EDENTON        MOSUNNY   85  74  68 SE12      30.15S
ELIZABETH CITY SUNNY     84  73  69 SE13      30.16S
KITTY HAWK     CLEAR     83  74  73 SE7       30.16S
MANTEO         PTSUNNY   84  74  71 S10       30.17S

$$

NCZ045>047-081-094-103-104-302200-
CENTRAL COAST

CITY           SKY/WX    TMP DP  RH WIND       PRES   REMARKS
FRISCO         NOT AVBL
SWANQUARTER      N/A     88 N/A N/A S6        30.12S

$$

NCZ095-097-098-100-101-302200-
SOUTHERN COAST

CITY           SKY/WX    TMP DP  RH WIND       PRES   REMARKS
BEAUFORT       SUNNY     84  74  71 S10       30.16S
CEDAR ISLAND     N/A     86 N/A N/A SE9       30.21S
JACKSONVILLE   SUNNY     85  71  63 S9        30.15S
NEWPORT        NOT AVBL
PINEY ISLAND   CLEAR     89  73  59 S8        30.15S
WILMINGTON     SUNNY     85  70  60 SE10      30.15F


$$

NCZ011>013-027>030-043-044-078>080-089-090>093-098-302200-
COASTAL PLAIN

CITY           SKY/WX    TMP DP  RH WIND       PRES   REMARKS
AHOSKIE        SUNNY     85  72  64 CALM      30.14F
CLINTON        SUNNY     86  75  70 SW3       30.14F
ELIZABETHTOWN  PTSUNNY   84  70  62 SE7       30.14S
GOLDSBORO      MOSUNNY   83  76  80 SE8       30.13R
GREENVILLE     MOSUNNY   88  72  58 CALM      30.15S
HAVELOCK       MOSUNNY   87  72  60 S9        30.16F
KENANSVILLE    MOSUNNY   84  72  65 E6        30.16S
KINSTON        MOSUNNY   86  72  62 S8G16     30.16R
NEW BERN       SUNNY     87  72  60 S3        30.16S
RICHLANDS      PTSUNNY   88  73  62 S7        30.15F
ROANOKE RAPIDS NOT AVBL
ROCKY MOUNT    MOSUNNY   89  72  56 SE5       30.14F
WASHINGTON     SUNNY     88  71  56 S6        30.14F
WHITEVILLE     CLOUDY    87  71  60 S8        30.13S

$$

AMZ130-135-150-152-154-156-158-170-250-252-270-ANZ085-086-088-633-658-670-302200-
MARINE OBSERVATIONS

STATION/POSITION TIME  TEMP    WIND        PRES    WAVE   SWELL
                       AIR SEA DIR/SP/G            HT/PER HT/PER
                 (UTC) (F)     (DEG/KT/KT) (MB)    (FT/S) (FT/S)
CHESAPEAKE LIGHT 2000   76     130/ 13/ 14 1022.5
BUOY 44014       2100   78 78  110/  8/ 10 1021.8    3/ 7   2/ 7
DUCK             2100   80 79  120/ 13/ 14 1020.6
2E DUCK          2100                        N/A     3/ 7
OREGON INLET     2100   81 78  130/  8/ 12 1021.6
BUOY 44095       2100      78                N/A     3/ 7
20E OREGON INLET NOT AVBL
HATTERAS CG      2100   84 82  170/  4/  7 1022.1
DIAMOND BUOY     2100   80     160/  8/ 10 1021.6    3/ 8   3/ 8
CAPE LOOKOUT     2000   81     170/  6/  7 1021.4
BEAUFORT LAB     2100   82 81  190/  8/  8 1020.8
30 SE NEW RIVER  2100   82 83  130/  8/ 10 1021.5    2/ 8   2/ 8
5 SE WRIGHTSVILL 2100   79 82  160/  8/ 10   N/A
BUOY 41002       2036   82 83  130/ 10/ 12 1021.9    3/ 9   3/ 9
BUOY 41004       2100   84 84   90/ 10/ 12 1019.5    2/ 8   2/ 8

$$


USA.gov is the U.S. government's official web portal to all federal, state and local government web resources and services.